Regional Weather Roundup
Issued by NWS

Home | Current Version | Previous Version | Text Only | Print | Product List | Glossary On
Versions: 1 2 3 4 5 6 7 8 9 10 11 12 13 14 15 16 17 18 19 20 21 22 23 24 25 26 27 28 29 30 31 32 33 34 35 36 37 38 39 40 41 42 43 44 45 46 47 48 49 50
923
ASUS42 KFFC 041010
RWRGA
WEATHER ROUNDUP FOR GEORGIA
NATIONAL WEATHER SERVICE PEACHTREE CITY GA
500 AM EST SUN DEC 04 2016

NOTE: "FAIR" INDICATES FEW OR NO CLOUDS BELOW 12,000 FEET WITH NO
SIGNIFICANT WEATHER AND/OR OBSTRUCTIONS TO VISIBILITY.

* = USE WITH CAUTION. THE STATIONS MARKED WITH AN ASTERISK MAY NOT
REPORT WEATHER SUCH AS PRECIPITATION, FOG, OR THUNDER AND ARE NOT
QUALITY CONTROLLED BY NWS.

THE REMARK "TC" DENOTES TEMPERATURE READING IN DEGREES CELSIUS.

GAZ001>058-041100-
NORTH GEORGIA

CITY           SKY/WX    TMP DP  RH WIND       PRES   REMARKS
ATLANTA        CLOUDY    46  42  86 E16       30.14S
ATHENS         CLOUDY    45  44  97 E8        30.18S
CHAMBLEE       CLOUDY    45  40  82 E7        30.15F
PEACHTREE CITY CLOUDY    48  40  73 VRB7      30.13S
ROME           LGT RAIN  44  41  89 NE6       30.14F
WEST ATLANTA   CLOUDY    46  41  82 E10       30.14F
GAINESVILLE    LGT RAIN  43  42  97 E9        30.19S
CARTERSVILLE   LGT RAIN  45  42  89 E8        30.14F


CITY           SKY/WX    TMP DP  RH WIND       PRES   REMARKS
DALTON*        LGT RAIN  41  41 100 N3        30.17S
MARIETTA       MIX PCPN  45  41  87 E10       30.13F
CANTON*        LGT RAIN  43  39  87 E6        30.15F
$$

GAZ059>098-102>109-041100-
CENTRAL GEORGIA

CITY           SKY/WX    TMP DP  RH WIND       PRES   REMARKS
AUGUSTA-BUSH   CLOUDY    50  41  71 E6        30.19F
AUGUSTA-DANIEL CLOUDY    50  40  68 E6        30.19F
COLUMBUS       CLOUDY    52  37  56 E8        30.07F
MACON          CLOUDY    53  38  56 E7        30.14S
ROBINS AFB     CLOUDY    53  38  56 E6        30.13R


CITY           SKY/WX    TMP DP  RH WIND       PRES   REMARKS
LAGRANGE*      CLOUDY    51  45  81 CALM      30.10R
SYLVANIA*      CLOUDY   N/A N/A N/A E8        30.19S
MILLEDGEVILLE* CLOUDY    52  43  71 NE3       30.17R
$$

GAZ099>101-110>166-041100-
SOUTH GEORGIA

CITY           SKY/WX    TMP DP  RH WIND       PRES   REMARKS
SAVANNAH       MOCLDY    52  43  71 NE8       30.18F
VALDOSTA       CLOUDY    56  52  86 SE5       30.07S
ALMA           CLOUDY    53  46  77 NE9       30.10F
ST SIMONS      MOCLDY    63  53  70 E10       30.12F
FT STEWART     MOCLDY    50  44  79 N3        30.14S
ALBANY         CLOUDY    55  48  77 E7        30.09F
HUNTER AFB     MOCLDY    54  48  78 N7        30.15F
MOODY AFB      CLOUDY    56  49  79 NE6       30.07R
BRUNSWICK      CLOUDY    59  55  88 NE6       30.14S


CITY           SKY/WX    TMP DP  RH WIND       PRES   REMARKS
BAINBRIDGE*    PTCLDY    54  50  87 E6        30.05F
MOULTRIE*      CLOUDY    54  50  87 CALM      30.09S
VIDALIA*       MOCLDY    52  46  82 E9        30.14F
WAYCROSS*      CLOUDY    55  52  89 E7        30.11F
DOUGLAS*       PTCLDY    54  45  71 E7        30.13R
$$




USA.gov is the U.S. government's official web portal to all federal, state and local government web resources and services.